Time,TemperatureF,DewpointF,PressureIn,WindDirection,WindDirectionDegrees,WindSpeedMPH,WindSpeedGustMPH,Humidity,HourlyPrecipIn,Conditions,Clouds,dailyrainin,SoftwareType,DateUTC
2013-12-27 00:02:00,31.0,26.0,30.21,West,270,0.0,4.0,82,0.00,,,0.00,,2013-12-27 05:02:00,
2013-12-27 00:22:00,31.0,26.0,30.21,West,270,0.0,0.0,82,0.00,,,0.00,,2013-12-27 05:22:00,
2013-12-27 00:52:00,31.0,26.0,30.21,West,270,0.0,0.0,82,0.00,,,0.00,,2013-12-27 05:52:00,
2013-12-27 01:22:00,30.0,25.0,30.21,West,270,2.0,6.0,82,0.00,,,0.00,,2013-12-27 06:22:00,
2013-12-27 01:43:00,31.0,26.0,30.21,West,270,0.0,0.0,82,0.00,,,0.00,,2013-12-27 06:43:00,
2013-12-27 01:52:00,31.0,26.0,30.21,West,270,0.0,0.0,82,0.00,,,0.00,,2013-12-27 06:52:00,
2013-12-27 02:22:00,31.0,26.0,30.21,West,270,0.0,0.0,81,0.00,,,0.00,,2013-12-27 07:22:00,
2013-12-27 02:42:00,31.0,26.0,30.24,West,270,0.0,0.0,81,0.00,,,0.00,,2013-12-27 07:42:00,
2013-12-27 02:52:00,31.0,26.0,30.24,West,270,0.0,0.0,81,0.00,,,0.00,,2013-12-27 07:52:00,
2013-12-27 03:02:00,31.0,26.0,30.24,West,270,0.0,0.0,81,0.00,,,0.00,,2013-12-27 08:02:00,
2013-12-27 03:22:00,31.0,26.0,30.24,West,270,0.0,0.0,81,0.00,,,0.00,,2013-12-27 08:22:00,
2013-12-27 03:52:00,30.0,25.0,30.24,West,270,0.0,0.0,80,0.00,,,0.00,,2013-12-27 08:52:00,
2013-12-27 04:22:00,30.0,24.0,30.24,West,270,0.0,0.0,79,0.00,,,0.00,,2013-12-27 09:22:00,
2013-12-27 04:43:00,30.0,24.0,30.24,West,270,0.0,0.0,79,0.00,,,0.00,,2013-12-27 09:43:00,
2013-12-27 04:53:00,30.0,24.0,30.24,West,270,0.0,0.0,79,0.00,,,0.00,,2013-12-27 09:53:00,
2013-12-27 05:23:00,30.0,24.0,30.24,West,270,0.0,2.0,78,0.00,,,0.00,,2013-12-27 10:23:00,
2013-12-27 05:33:00,30.0,24.0,30.24,West,270,0.0,2.0,78,0.00,,,0.00,,2013-12-27 10:33:00,
2013-12-27 05:52:00,30.0,23.0,30.24,West,270,0.0,0.0,76,0.00,,,0.00,,2013-12-27 10:52:00,
2013-12-27 06:03:00,30.0,23.0,30.24,West,270,0.0,0.0,76,0.00,,,0.00,,2013-12-27 11:03:00,
2013-12-27 06:22:00,30.0,23.0,30.24,West,270,0.0,3.0,75,0.00,,,0.00,,2013-12-27 11:22:00,
2013-12-27 06:32:00,30.0,23.0,30.24,West,270,0.0,3.0,75,0.00,,,0.00,,2013-12-27 11:32:00,
2013-12-27 06:53:00,30.0,23.0,30.24,West,270,0.0,4.0,75,0.00,,,0.00,,2013-12-27 11:53:00,
2013-12-27 07:12:00,30.0,23.0,30.24,West,270,0.0,4.0,75,0.00,,,0.00,,2013-12-27 12:12:00,
2013-12-27 07:22:00,30.0,23.0,30.24,West,270,0.0,4.0,75,0.00,,,0.00,,2013-12-27 12:22:00,
2013-12-27 07:42:00,30.0,23.0,30.24,West,270,0.0,3.0,74,0.00,,,0.00,,2013-12-27 12:42:00,
2013-12-27 07:53:00,30.0,23.0,30.24,West,270,0.0,3.0,74,0.00,,,0.00,,2013-12-27 12:53:00,
2013-12-27 08:11:00,30.0,23.0,30.24,West,270,0.0,3.0,74,0.00,,,0.00,,2013-12-27 13:11:00,
2013-12-27 09:22:00,32.0,24.0,30.27,West,270,0.0,0.0,73,0.00,,,0.00,,2013-12-27 14:22:00,
2013-12-27 09:52:00,32.0,24.0,30.27,West,270,0.0,6.0,72,0.00,,,0.00,,2013-12-27 14:52:00,
2013-12-27 10:02:00,32.0,24.0,30.27,West,270,0.0,6.0,72,0.00,,,0.00,,2013-12-27 15:02:00,
2013-12-27 10:22:00,33.0,25.0,30.27,West,270,0.0,0.0,72,0.00,,,0.00,,2013-12-27 15:22:00,
2013-12-27 10:54:00,34.0,26.0,30.27,West,270,0.0,1.0,71,0.00,,,0.00,,2013-12-27 15:54:00,
2013-12-27 11:23:00,34.0,25.0,30.24,West,270,2.0,3.0,70,0.00,,,0.00,,2013-12-27 16:23:00,
2013-12-27 11:33:00,34.0,25.0,30.24,West,270,2.0,3.0,70,0.00,,,0.00,,2013-12-27 16:33:00,
2013-12-27 11:53:00,35.0,26.0,30.24,WSW,248,0.0,4.0,70,0.00,,,0.00,,2013-12-27 16:53:00,
2013-12-27 12:22:00,35.0,26.0,30.24,West,270,0.0,0.0,69,0.00,,,0.00,,2013-12-27 17:22:00,
2013-12-27 12:52:00,36.0,26.0,30.21,NW,315,0.0,5.0,68,0.00,,,0.00,,2013-12-27 17:52:00,
2013-12-27 13:22:00,36.0,26.0,30.21,West,270,0.0,0.0,67,0.00,,,0.00,,2013-12-27 18:22:00,
2013-12-27 13:42:00,36.0,26.0,30.21,WSW,248,0.0,8.0,67,0.00,,,0.00,,2013-12-27 18:42:00,
2013-12-27 13:53:00,36.0,26.0,30.21,WSW,248,0.0,8.0,67,0.00,,,0.00,,2013-12-27 18:53:00,
2013-12-27 14:02:00,36.0,26.0,30.21,WSW,248,0.0,8.0,67,0.00,,,0.00,,2013-12-27 19:02:00,
2013-12-27 14:22:00,36.0,25.0,30.21,West,270,0.0,0.0,65,0.00,,,0.00,,2013-12-27 19:22:00,
2013-12-27 14:42:00,36.0,25.0,30.21,WNW,292,7.0,7.0,65,0.00,,,0.00,,2013-12-27 19:42:00,
2013-12-27 14:52:00,36.0,25.0,30.21,WNW,292,0.0,14.0,63,0.00,,,0.00,,2013-12-27 19:52:00,
2013-12-27 15:21:00,35.0,24.0,30.21,WSW,248,0.0,2.0,64,0.00,,,0.00,,2013-12-27 20:21:00,
2013-12-27 15:32:00,35.0,24.0,30.21,WSW,248,0.0,2.0,64,0.00,,,0.00,,2013-12-27 20:32:00,
2013-12-27 15:52:00,35.0,24.0,30.21,WSW,248,0.0,0.0,64,0.00,,,0.00,,2013-12-27 20:52:00,
2013-12-27 16:02:00,35.0,24.0,30.21,WSW,248,0.0,0.0,64,0.00,,,0.00,,2013-12-27 21:02:00,
2013-12-27 16:22:00,35.0,24.0,30.21,WSW,248,0.0,0.0,65,0.00,,,0.00,,2013-12-27 21:22:00,
2013-12-27 16:33:00,35.0,24.0,30.21,WSW,248,0.0,0.0,65,0.00,,,0.00,,2013-12-27 21:33:00,
2013-12-27 16:53:00,34.0,24.0,30.21,West,270,0.0,0.0,67,0.00,,,0.00,,2013-12-27 21:53:00,
2013-12-27 17:23:00,33.0,23.0,30.21,West,270,0.0,0.0,67,0.00,,,0.00,,2013-12-27 22:23:00,
2013-12-27 17:43:00,33.0,24.0,30.21,West,270,0.0,0.0,68,0.00,,,0.00,,2013-12-27 22:43:00,
2013-12-27 17:53:00,33.0,24.0,30.21,West,270,0.0,0.0,68,0.00,,,0.00,,2013-12-27 22:53:00,
2013-12-27 18:22:00,33.0,24.0,30.24,West,270,0.0,14.0,69,0.00,,,0.00,,2013-12-27 23:22:00,
2013-12-27 18:32:00,33.0,24.0,30.24,West,270,0.0,14.0,69,0.00,,,0.00,,2013-12-27 23:32:00,
2013-12-27 18:52:00,32.0,23.0,30.24,West,270,0.0,0.0,70,0.00,,,0.00,,2013-12-27 23:52:00,
2013-12-27 19:11:00,32.0,23.0,30.24,NW,315,0.0,0.0,70,0.00,,,0.00,,2013-12-28 00:11:00,
2013-12-27 19:22:00,32.0,23.0,30.24,NW,315,0.0,0.0,70,0.00,,,0.00,,2013-12-28 00:22:00,
2013-12-27 19:32:00,32.0,23.0,30.24,NW,315,0.0,0.0,70,0.00,,,0.00,,2013-12-28 00:32:00,
2013-12-27 19:53:00,32.0,24.0,30.24,WNW,292,0.0,0.0,72,0.00,,,0.00,,2013-12-28 00:53:00,
2013-12-27 20:22:00,32.0,24.0,30.24,WNW,292,0.0,0.0,73,0.00,,,0.00,,2013-12-28 01:22:00,
2013-12-27 20:42:00,31.0,24.0,30.24,WNW,292,0.0,0.0,74,0.00,,,0.00,,2013-12-28 01:42:00,
2013-12-27 20:52:00,31.0,24.0,30.24,WNW,292,0.0,0.0,74,0.00,,,0.00,,2013-12-28 01:52:00,
2013-12-27 21:22:00,31.0,24.0,30.27,West,270,0.0,0.0,75,0.00,,,0.00,,2013-12-28 02:22:00,
2013-12-27 21:42:00,31.0,24.0,30.27,NNW,338,0.0,0.0,74,0.00,,,0.00,,2013-12-28 02:42:00,
2013-12-27 21:52:00,31.0,24.0,30.27,NNW,338,0.0,0.0,74,0.00,,,0.00,,2013-12-28 02:52:00,
2013-12-27 22:22:00,32.0,25.0,30.27,NNW,338,0.0,0.0,74,0.00,,,0.00,,2013-12-28 03:22:00,
2013-12-27 22:33:00,32.0,25.0,30.27,NNW,338,0.0,0.0,74,0.00,,,0.00,,2013-12-28 03:33:00,
2013-12-27 22:53:00,32.0,25.0,30.27,WSW,248,0.0,14.0,74,0.00,,,0.00,,2013-12-28 03:53:00,
2013-12-27 23:22:00,32.0,24.0,30.27,West,270,0.0,0.0,73,0.00,,,0.00,,2013-12-28 04:22:00,
2013-12-27 23:33:00,32.0,24.0,30.27,West,270,0.0,0.0,73,0.00,,,0.00,,2013-12-28 04:33:00,
2013-12-27 23:42:00,32.0,24.0,30.27,West,270,0.0,0.0,73,0.00,,,0.00,,2013-12-28 04:42:00,
2013-12-27 23:53:00,32.0,24.0,30.27,West,270,0.0,0.0,73,0.00,,,0.00,,2013-12-28 04:53:00,